Station: Tasman Island  

  Atmospheric Gas Attenuation - ITU Rec 676-11   ----------------- dB/100km -----------------
Date Time Temp RH % AH g/m3 Dew Point Wind Direction Speed kph Gust kph Barometer mB Rainfall Since 9am 24GHz 47GHz 76GHz 122GHz 134GHz 241GHz
06/09 00:40 10.3 96 9.2 9.7 19 30 1005.2 9.4 21.1 27.6 43.8 115.1 110.7 381.0
06/09 00:30 10.3 97 9.29 9.8 20 32 1004.9 9.4 21.3 27.8 44.1 116.1 111.9 385.3
06/09 00:20 10.3 97 9.29 9.8 20 33 1004.6 9.4 21.3 27.8 44.1 116.1 111.9 385.2
06/09 00:10 10.3 98 9.39 10 17 26 1004.5 9.4 21.5 28.0 44.6 117.2 113.3 390.1
06/09 00:00 10.3 98 9.39 10 19 32 1004.3 9.4 21.5 27.9 44.5 117.2 113.3 390.1
05/09 23:50 10.4 98 9.45 10.1 22 37 1003.9 9.4 21.6 28.0 44.7 117.7 113.9 392.4
05/09 23:40 10.5 98 9.51 10.2 22 37 1003.6 9.4 21.7 28.1 44.9 118.2 114.6 394.8
05/09 23:30 10.5 98 9.51 10.2 19 32 1003.2 9.4 21.7 28.0 44.9 118.2 114.6 394.7
05/09 23:20 10.3 98 9.39 10 22 37 1002.8 9.4 21.5 27.9 44.5 117.0 113.1 389.6
05/09 23:10 10.5 98 9.51 10.2 24 39 1002.4 9.4 21.7 28.0 44.9 118.1 114.5 394.4
05/09 23:00 10.6 98 9.57 10.3 22 37 1002.2 9.4 21.9 28.1 45.1 118.6 115.2 396.8
05/09 22:50 10.4 98 9.45 10.1 24 35 1002 9.4 21.6 27.9 44.6 117.5 113.7 391.8
05/09 22:40 10.5 98 9.51 10.2 19 37 1001.6 9.4 21.7 28.0 44.8 118.0 114.4 394.2
05/09 22:30 10.6 98 9.57 10.3 20 35 1001.5 9.2 21.9 28.0 45.0 118.5 115.1 396.6
05/09 22:20 10.5 98 9.51 10.2 15 24 1001.2 9.2 21.7 28.0 44.8 117.9 114.4 394.0
05/09 22:10 10.7 98 9.63 10.4 17 30 1000.9 9.2 22.0 28.1 45.2 119.0 115.7 398.9
05/09 22:00 10.7 98 9.63 10.4 15 24 1000.8 9.2 22.0 28.1 45.2 119.0 115.7 398.8
05/09 21:50 10.6 98 9.57 10.3 13 28 1000.6 9 21.9 28.0 45.0 118.4 115.0 396.3
05/09 21:40 10.8 98 9.69 10.5 19 30 1000.3 8.6 22.1 28.1 45.4 119.4 116.4 401.1
05/09 21:30 10.8 98 9.69 10.5 15 22 1000.2 8.6 22.1 28.1 45.4 119.4 116.4 401.1
05/09 21:20 10.6 98 9.57 10.3 15 20 1000 8.6 21.9 28.0 44.9 118.3 115.0 396.1
05/09 21:10 10.7 98 9.63 10.4 13 24 999.7 8.6 22.0 28.0 45.1 118.8 115.6 398.5
05/09 21:00 10.4 98 9.45 10.1 15 20 999.5 8.6 21.6 27.8 44.5 117.2 113.5 391.0
05/09 20:50 10.6 98 9.57 10.3 15 26 999.1 8.6 21.9 28.0 44.9 118.2 114.9 395.8
05/09 20:40 10.1 98 9.27 9.8 9 19 999 8.6 21.2 27.6 43.9 115.5 111.4 383.5
05/09 20:30 10.2 98 9.33 9.9 9 17 998.9 8.6 21.4 27.7 44.1 116.1 112.1 385.9
05/09 20:20 10.1 98 9.27 9.8 7 15 998.7 8.6 21.2 27.6 43.9 115.5 111.3 383.4
05/09 20:10 9.9 98 9.15 9.6 9 17 998.6 8.6 21.0 27.4 43.5 114.4 109.9 378.5
05/09 20:00 9.7 97 8.94 9.2 9 17 998.3 8.6 20.5 27.1 42.7 112.3 107.2 369.0
05/09 19:50 9.7 97 8.94 9.2 9 17 998.2 8.6 20.5 27.1 42.7 112.3 107.2 369.0
05/09 19:40 9.9 97 9.06 9.4 13 20 998.1 8.6 20.8 27.3 43.1 113.3 108.6 373.9
05/09 19:30 10.2 98 9.33 9.9 7 19 997.9 8.4 21.4 27.6 44.0 115.9 112.0 385.6
05/09 19:20 10.4 98 9.45 10.1 9 17 997.6 8.4 21.6 27.7 44.4 117.0 113.3 390.5
05/09 19:10 10.2 97 9.23 9.7 6 15 997.4 8.2 21.1 27.4 43.6 114.7 110.5 380.5
05/09 19:00 10.5 97 9.41 10 0 0 997.2 8 21.5 27.6 44.2 116.3 112.6 387.8
05/09 18:50 10.3 97 9.29 9.8 0 0 997.1 7.8 21.3 27.5 43.8 115.2 111.2 382.9
05/09 18:40 10.2 97 9.23 9.7 0 0 996.8 7.6 21.1 27.4 43.6 114.7 110.5 380.4
05/09 18:30 10.2 97 9.23 9.7 0 0 996.7 7.4 21.1 27.4 43.5 114.7 110.4 380.3
05/09 18:20 10.2 97 9.23 9.7 0 0 996.6 7.4 21.1 27.4 43.5 114.7 110.4 380.3
05/09 18:10 10.4 97 9.35 9.9 4 13 996.5 7.4 21.4 27.5 43.9 115.7 111.8 385.2
05/09 18:00 10.6 97 9.47 10.1 6 13 996.5 7.4 21.6 27.7 44.3 116.8 113.2 390.1
05/09 17:50 10.3 97 9.29 9.8 4 9 996.3 7.4 21.3 27.5 43.7 115.2 111.1 382.7
05/09 17:40 10.2 97 9.23 9.7 9 17 996.2 7.4 21.1 27.4 43.5 114.6 110.4 380.2
05/09 17:30 10.4 97 9.35 9.9 4 17 996.1 7.4 21.4 27.5 43.9 115.7 111.8 385.1
05/09 17:20 10.4 97 9.35 9.9 0 0 996 7.2 21.4 27.5 43.9 115.7 111.8 385.0
05/09 17:10 10.3 97 9.29 9.8 0 0 995.8 7 21.3 27.4 43.7 115.1 111.1 382.5
05/09 17:00 10.4 98 9.45 10.1 2 13 995.6 7 21.6 27.7 44.3 116.8 113.1 389.8
05/09 16:50 10.5 98 9.51 10.2 6 17 995.6 7 21.7 27.7 44.5 117.3 113.8 392.3
05/09 16:40 10.1 98 9.27 9.8 13 20 995.3 6.8 21.2 27.4 43.7 115.1 111.0 382.4
05/09 16:30 10.5 98 9.51 10.2 13 20 995.3 6.6 21.7 27.7 44.5 117.3 113.8 392.2
05/09 16:20 10.4 98 9.45 10.1 17 22 995.2 5.8 21.6 27.7 44.3 116.7 113.1 389.7
05/09 16:10 10.6 98 9.57 10.3 19 28 995.4 4.8 21.9 27.8 44.7 117.8 114.5 394.7
05/09 16:00 10.5 98 9.51 10.2 17 24 995.5 2.8 21.7 27.7 44.5 117.3 113.8 392.2
05/09 15:50 10.8 98 9.69 10.5 19 30 995.6 2.2 22.1 28.0 45.1 118.9 115.9 399.6
05/09 15:40 10.9 98 9.75 10.6 19 28 995.6 0.8 22.2 28.0 45.3 119.4 116.6 402.1
05/09 15:30 10.8 98 9.69 10.5 19 28 995.6 0.4 22.1 28.0 45.1 118.9 115.9 399.6
05/09 15:20 11.1 98 9.87 10.8 17 22 995.6 0.2 22.5 28.2 45.7 120.5 118.0 407.0
05/09 15:10 11.1 98 9.87 10.8 19 26 995.5 0.2 22.5 28.2 45.7 120.5 118.0 406.9
05/09 15:00 11 98 9.81 10.7 17 26 995.5 0.2 22.4 28.1 45.5 120.0 117.3 404.5
05/09 14:50 11 98 9.81 10.7 19 24 995.4 0.2 22.4 28.1 45.5 119.9 117.3 404.5
05/09 14:40 11 98 9.81 10.7 17 24 995.4 0.2 22.4 28.1 45.5 119.9 117.3 404.5
05/09 14:30 11.1 98 9.87 10.8 17 24 995.3 0.2 22.5 28.2 45.7 120.5 118.0 406.9
05/09 14:20 10.9 98 9.75 10.6 17 28 995.4 0.2 22.2 28.0 45.3 119.4 116.6 402.0
05/09 14:10 11 98 9.81 10.7 17 24 995.8 0.2 22.4 28.1 45.5 120.0 117.4 404.6
05/09 14:00 10.9 98 9.75 10.6 15 24 996 0.2 22.2 28.0 45.4 119.5 116.7 402.2
05/09 13:50 11.1 98 9.87 10.8 13 20 996.1 0.2 22.5 28.2 45.8 120.6 118.1 407.1
05/09 13:40 10.8 98 9.69 10.5 17 26 996.4 0.2 22.1 28.0 45.2 119.0 116.0 399.9
05/09 13:30 10.8 98 9.69 10.5 17 30 996.5 0.2 22.1 28.0 45.2 119.0 116.0 399.9
05/09 13:20 11 98 9.81 10.7 15 26 996.6 0.2 22.4 28.1 45.6 120.1 117.4 404.9
05/09 13:10 11 98 9.81 10.7 17 26 996.9 0.2 22.4 28.2 45.6 120.1 117.5 405.0
05/09 13:00 11.1 98 9.87 10.8 13 24 997.1 0.2 22.5 28.2 45.8 120.7 118.2 407.5
05/09 12:50 11.3 98 10 11 17 26 997.3 0.2 22.8 28.4 46.3 121.9 119.7 412.9
05/09 12:40 11.1 98 9.87 10.8 17 26 997.8 0.2 22.5 28.3 45.8 120.8 118.2 407.7
05/09 12:30 10.9 98 9.75 10.6 19 28 998 0.2 22.2 28.1 45.4 119.7 116.9 402.9
05/09 12:20 10.9 98 9.75 10.6 19 28 998.3 0.2 22.2 28.1 45.5 119.8 116.9 403.0
05/09 12:10 11.1 97 9.77 10.6 20 32 998.4 0.2 22.3 28.1 45.4 119.7 116.9 402.9
05/09 12:00 11.3 97 9.9 10.8 19 28 998.5 0.2 22.5 28.3 45.9 120.9 118.4 408.3
05/09 11:50 11.2 97 9.83 10.7 17 28 998.9 0 22.4 28.2 45.7 120.3 117.6 405.5
05/09 11:40 11.3 97 9.9 10.8 19 26 999.3 0 22.5 28.3 45.9 121.0 118.5 408.6
05/09 11:30 11.4 96 9.86 10.8 19 28 999.5 0 22.4 28.2 45.7 120.4 117.8 406.2
05/09 11:20 11.1 96 9.67 10.5 19 28 999.8 0 22.0 28.0 45.1 118.7 115.6 398.4
05/09 11:10 10.9 96 9.55 10.3 19 30 999.9 0 21.8 27.9 44.7 117.6 114.2 393.6
05/09 11:00 11.1 96 9.67 10.5 20 30 1000.2 0 22.0 28.0 45.1 118.7 115.6 398.6
05/09 10:50 11 96 9.61 10.4 19 28 1000.5 0 21.9 27.9 44.9 118.2 115.0 396.2
05/09 10:40 11.2 96 9.73 10.6 19 26 1000.5 0 22.2 28.1 45.3 119.3 116.4 401.1
05/09 10:30 11.2 96 9.73 10.6 20 28 1000.7 0 22.2 28.1 45.3 119.3 116.4 401.2
05/09 10:20 11.3 95 9.69 10.5 22 32 1000.9 0 22.1 28.0 45.1 118.7 115.7 398.7
05/09 10:10 11.3 94 9.59 10.4 22 33 1000.9 0 21.9 27.8 44.7 117.6 114.3 393.8
05/09 10:00 10.9 94 9.35 10 20 33 1001.1 0 21.4 27.6 43.9 115.5 111.5 384.1
05/09 09:50 11.2 94 9.53 10.3 19 26 1001.4 0 21.7 27.8 44.5 117.1 113.6 391.5
05/09 09:40 11 94 9.41 10.1 19 26 1001.6 0 21.5 27.6 44.1 116.1 112.3 386.7
05/09 09:30 10.8 93 9.19 9.7 19 24 1001.8 0 21.0 27.3 43.3 113.9 109.5 377.0
05/09 09:20 10.7 92 9.04 9.5 19 26 1002 0 20.7 27.1 42.7 112.4 107.5 370.2
05/09 09:10 10.5 92 8.92 9.3 19 26 1002.1 0 20.5 27.0 42.3 111.3 106.2 365.4
05/09 09:00 10.4 93 8.97 9.3 17 26 1002.3 0 20.6 27.1 42.6 112.1 107.0 368.3
05/09 08:50 10.3 92 8.81 9.1 17 24 1002.4 0 20.2 26.9 42.0 110.4 104.9 361.1
05/09 08:40 10.3 90 8.62 8.7 17 22 1002.8 0 19.8 26.6 41.2 108.3 102.4 352.0
05/09 08:30 10.2 90 8.57 8.6 15 22 1002.8 0 19.7 26.5 41.0 107.9 101.8 350.0
05/09 08:20 10.4 89 8.58 8.7 17 26 1003.1 0 19.7 26.5 41.0 107.8 101.7 349.7
05/09 08:10 10.5 86 8.34 8.3 17 26 1003 0 19.2 26.0 39.9 104.9 98.3 337.7

Last Refresh: 06-Sep-2026 00:21:55

Bureau of Meteorology